Location: Pian di Sc�
(43.6333°N, 11.5500°E)
Time: 17:52:46
(UTC+00:00)

Cosmos 2360 Rocket - Pass Details

Date: 07 August 2020
Orbit: 833 x 845 km, 71.0° (Epoch: 18 September)

Event Time Altitude Azimuth Distance (km) Brightness Sun altitude
Rises 00:29:06 0° 317° (NW) 3,411 5.7 -28.0°
Reaches altitude 10° 00:32:38 10° 295° (WNW) 2,469 4.7 -27.7°
Enters shadow 00:33:42 13° 285° (WNW) 2,285 4.4 -27.7°
